Miscellaneous Local Product
Issued by NWS Hastings, NE

Home | Current Version | Previous Version | Text Only | Print | Product List | Glossary Off
Versions: 1 2 3 4 5 6 7 8 9 10 11 12 13 14 15 16 17 18 19 20 21 22 23 24 25 26 27 28 29 30 31 32 33 34 35 36 37 38 39 40 41 42 43 44 45 46 47 48 49 50

000
AXUS43 KGID 191002
MISGRI

GID CWA HOURLY WEATHER ROUNDUP
NATIONAL WEATHER SERVICE HASTINGS NE
500 AM CDT TUE SEP 19 2017

NOTE: "FAIR" INDICATES FEW OR NO CLOUDS BELOW 12,000 FEET WITH NO
SIGNIFICANT WEATHER AND/OR OBSTRUCTIONS TO VISIBILITY.

...SOUTH CENTRAL NEBRASKA...

CITY           SKY/WX    TMP DP  RH WIND       PRES   REMARKS
GRAND ISLAND   CLEAR     64  64 100 S9        29.78F
HASTINGS       CLEAR     64  62  93 S8        29.79F
KEARNEY        CLEAR     61  60  97 S8        29.77F
ORD            FOG       60  59  96 SE5       29.75F VSB 1/4
YORK           CLEAR     64  64 100 S7        29.80S
AURORA         CLEAR     62  62 100 S6        29.79S
LEXINGTON      CLEAR     61  59  91 SE6       29.76F
HOLDREGE       CLEAR     63  60  91 S7        29.77S
HEBRON         CLEAR     67  64  91 S6        29.80S

...NEBRASKA PANHANDLE...

CITY           SKY/WX    TMP DP  RH WIND       PRES   REMARKS
CHADRON        CLOUDY    67  47  48 S29G37    29.61F
ALLIANCE       CLEAR     53  50  89 S9        29.70F
SCOTTSBLUFF    CLOUDY    57  48  72 E9        29.70F
SIDNEY         CLOUDY    50  45  83 W3        29.74F

...WESTERN AND NORTH CENTRAL NEBRASKA...

CITY           SKY/WX    TMP DP  RH WIND       PRES   REMARKS
VALENTINE      PTCLDY    64  59  83 S13       29.70F
AINSWORTH      CLOUDY    60  60  99 S10       29.72F
ONEILL         CLEAR     61  61 100 SE8       29.76F FOG
BROKEN BOW     FOG       54  53  97 CALM      29.75F VSB 1/2
IMPERIAL       CLOUDY    60  55  83 SE9       29.71F
NORTH PLATTE   CLEAR     58  57  97 E10       29.73F
MCCOOK         CLEAR     64  60  87 VRB3      29.73F

...EASTERN NEBRASKA...

CITY           SKY/WX    TMP DP  RH WIND       PRES   REMARKS
NORFOLK        CLOUDY    63  63 100 SE8       29.78F FOG
SO SIOUX CITY  FOG       65  65 100 SE10      29.81F VSB 1
TEKAMAH        CLOUDY    67  65  93 SE10      29.81F FOG
COLUMBUS       CLEAR     65  63  93 SE8       29.80S
ALBION         FOG       63  63  99 SE6       29.78F VSB 1/4
OMAHA EPPLEY   CLOUDY    68  64  87 SE13      29.83F
OFFUTT AFB     CLOUDY    67  65  95 SE9       29.82F
MILLARD        CLOUDY    68  67  96 SE10      29.83S FOG
LINCOLN        CLEAR     66  64  93 S8        29.81F
NEBRASKA CITY  CLOUDY    67  67 100 SE7       29.84F FOG
BEATRICE       CLEAR     67  65  94 SE8       29.81F
FALLS CITY     CLEAR     66  65  96 SE5       29.84F FOG

...NORTHERN KANSAS...

CITY           SKY/WX    TMP DP  RH WIND       PRES   REMARKS
GOODLAND       PTCLDY    64  63  96 S21       29.74F FOG
HILL CITY      CLEAR     69  65  86 VRB5      29.77F
NORTON         SUNNY     64  59  82 S7        29.76
PHILLIPSBURG   CLEAR     64  64 100 NE3       29.77F
SMITH CENTER   CLEAR     59  59 100 E7        29.79F
HAYS           CLEAR     69  64  84 S12       29.78F
RUSSELL        CLEAR     69  64  84 S13       29.78F
CONCORDIA      CLEAR     67  66  97 S9        29.80F
SALINA         CLEAR     71  66  84 S9        29.81F
TOPEKA         PTCLDY    66  66 100 E5        29.84F



USA.gov is the U.S. government's official web portal to all federal, state and local government web resources and services.